Location: Bailen
(14.1842°N, 120.7958°E)
Time: 11:57:34
(UTC+00:00)

Lacrosse 4 Rocket - Pass Details

Date: 24 April 2026
Orbit: 506 x 567 km, 68.0° (Epoch: 12 May)

Event Time Altitude Azimuth Distance (km) Brightness Sun altitude
Exits shadow 19:24:17 16° 98° (E) 1,366 3.9 -31.4°
Drops below altitude 10° 19:26:22 10° 66° (ENE) 1,725 4.7 -31.0°
Sets 19:29:08 0° 45° (NE) 2,621 5.8 -30.4°
